BAW327 LFMN-EGLL

Flight info

Callsign BAW327
Flight time 1h 41m
Altitude 36000
Route BADOD8X BADOD DCT NEDRU DCT LTP DCT BULOL DCT IDAVO DCT BAGBI DCT SIZZA DCT LAULY DCT BRY DCT CLM DCT KOPOR DCT ABNUR DCT DIMAL DCT ALESO ALESO1H
Aircraft A320/M-SDE3FGHIJ1RWXY/S

Departure

Time 2026-05-07 15:54
Airport Nice-Côte d'Azur Airport (LFMN)

Arrival

Time 2026-05-07 17:36
Airport London Heathrow Airport (EGLL)
Time Latitude Longitude Altitude Speed Heading
2026-05-07 15:21 43.66183 7.21103 24 ft 0 kts 82°
2026-05-07 15:43 43.66183 7.21102 22 ft 2 kts 82°
2026-05-07 15:43 43.66179 7.21068 22 ft 4 kts 83°
2026-05-07 15:43 43.66179 7.21045 22 ft 4 kts 108°
2026-05-07 15:43 43.66193 7.21019 24 ft 4 kts 160°
2026-05-07 15:44 43.66204 7.21014 22 ft 1 kts 169°
2026-05-07 15:44 43.66205 7.21014 22 ft 0 kts 169°
2026-05-07 15:47 43.66204 7.21015 22 ft 1 kts 169°
2026-05-07 15:47 43.66190 7.21018 24 ft 3 kts 168°
2026-05-07 15:48 43.66163 7.21025 24 ft 5 kts 169°
2026-05-07 15:48 43.66124 7.21046 22 ft 7 kts 143°
2026-05-07 15:48 43.66120 7.21112 24 ft 8 kts 62°
2026-05-07 15:48 43.66163 7.21177 22 ft 10 kts 44°
2026-05-07 15:49 43.66219 7.21251 22 ft 12 kts 44°
2026-05-07 15:49 43.66282 7.21340 22 ft 14 kts 46°
2026-05-07 15:49 43.66353 7.21443 22 ft 16 kts 52°
2026-05-07 15:49 43.66345 7.21577 22 ft 16 kts 131°
2026-05-07 15:50 43.66364 7.21710 22 ft 17 kts 43°
2026-05-07 15:50 43.66457 7.21829 22 ft 19 kts 43°
2026-05-07 15:50 43.66552 7.21969 22 ft 21 kts 44°
2026-05-07 15:50 43.66663 7.22117 22 ft 23 kts 44°
2026-05-07 15:51 43.66777 7.22274 22 ft 21 kts 46°
2026-05-07 15:51 43.66794 7.22427 21 ft 19 kts 130°
2026-05-07 15:51 43.66698 7.22559 21 ft 20 kts 134°
2026-05-07 15:51 43.66594 7.22702 22 ft 22 kts 135°
2026-05-07 15:52 43.66483 7.22734 24 ft 4 kts 226°
2026-05-07 15:52 43.66482 7.22734 24 ft 0 kts 225°
2026-05-07 15:53 43.66477 7.22727 23 ft 7 kts 225°
2026-05-07 15:53 43.66268 7.22443 24 ft 76 kts 225°
2026-05-07 15:54 43.65751 7.21736 23 ft 130 kts 225°
2026-05-07 15:54 43.65012 7.20711 83 ft 166 kts 230°
2026-05-07 15:54 43.64350 7.19324 536 ft 175 kts 230°
2026-05-07 15:54 43.63525 7.18104 1159 ft 174 kts 220°
2026-05-07 15:55 43.62605 7.16950 1480 ft 191 kts 219°
2026-05-07 15:55 43.61514 7.15711 1772 ft 212 kts 205°
2026-05-07 15:55 43.60081 7.15311 2396 ft 215 kts 173°
2026-05-07 15:55 43.58677 7.16048 3071 ft 220 kts 151°
2026-05-07 15:56 43.57344 7.17117 3781 ft 223 kts 151°
2026-05-07 15:56 43.55924 7.18012 4473 ft 226 kts 169°
2026-05-07 15:56 43.54366 7.18135 5171 ft 226 kts 191°
2026-05-07 15:56 43.52838 7.17598 5896 ft 227 kts 201°
2026-05-07 15:57 43.51541 7.16421 6582 ft 226 kts 233°
2026-05-07 15:57 43.50895 7.14481 7246 ft 226 kts 264°
2026-05-07 15:57 43.51056 7.12338 7928 ft 228 kts 285°
2026-05-07 15:57 43.51488 7.10219 8637 ft 231 kts 285°
2026-05-07 15:58 43.51919 7.08076 9353 ft 233 kts 284°
2026-05-07 15:58 43.52485 7.05957 9871 ft 240 kts 299°
2026-05-07 15:58 43.53541 7.04159 9976 ft 252 kts 319°
2026-05-07 15:58 43.55126 7.02803 10005 ft 283 kts 331°
2026-05-07 15:59 43.56926 7.01534 10000 ft 297 kts 331°
2026-05-07 15:59 43.58783 7.00221 10002 ft 307 kts 331°
2026-05-07 15:59 43.60644 6.98898 9994 ft 294 kts 331°
2026-05-07 15:59 43.62415 6.97634 9999 ft 279 kts 330°
2026-05-07 16:00 43.64103 6.96430 9994 ft 266 kts 330°
2026-05-07 16:00 43.65701 6.95293 10096 ft 249 kts 330°
2026-05-07 16:00 43.67224 6.94207 10504 ft 244 kts 330°
2026-05-07 16:00 43.68735 6.93119 11197 ft 245 kts 330°
2026-05-07 16:01 43.70249 6.92027 11859 ft 247 kts 330°
2026-05-07 16:01 43.71781 6.90925 12534 ft 249 kts 330°
2026-05-07 16:01 43.73327 6.89813 13213 ft 252 kts 330°
2026-05-07 16:01 43.74868 6.88703 13845 ft 255 kts 330°
2026-05-07 16:02 43.76449 6.87563 14444 ft 257 kts 330°
2026-05-07 16:02 43.78043 6.86410 15045 ft 260 kts 330°
2026-05-07 16:02 43.79649 6.85248 15632 ft 262 kts 330°
2026-05-07 16:02 43.81273 6.84071 16231 ft 264 kts 329°
2026-05-07 16:03 43.82908 6.82889 16821 ft 266 kts 330°
2026-05-07 16:03 43.84559 6.81699 17397 ft 269 kts 330°
2026-05-07 16:03 43.86278 6.80456 17576 ft 288 kts 330°
2026-05-07 16:03 43.88112 6.79127 17707 ft 307 kts 330°
2026-05-07 16:04 43.90058 6.77715 17845 ft 325 kts 330°
2026-05-07 16:04 43.92112 6.76229 17984 ft 342 kts 330°
2026-05-07 16:04 43.94269 6.74668 18142 ft 357 kts 330°
2026-05-07 16:04 43.96471 6.73001 18528 ft 363 kts 328°
2026-05-07 16:05 43.98679 6.71248 19043 ft 366 kts 328°
2026-05-07 16:05 44.00888 6.69450 19600 ft 369 kts 327°
2026-05-07 16:05 44.03078 6.67658 20146 ft 371 kts 327°
2026-05-07 16:05 44.05312 6.65840 20730 ft 373 kts 327°
2026-05-07 16:06 44.07559 6.64022 21283 ft 375 kts 327°
2026-05-07 16:06 44.09821 6.62196 21841 ft 377 kts 327°
2026-05-07 16:06 44.12097 6.60363 22382 ft 379 kts 327°
2026-05-07 16:06 44.14386 6.58517 22941 ft 382 kts 327°
2026-05-07 16:07 44.16691 6.56657 23457 ft 384 kts 326°
2026-05-07 16:07 44.19013 6.54782 23903 ft 386 kts 326°
2026-05-07 16:07 44.21344 6.52896 24337 ft 388 kts 326°
2026-05-07 16:07 44.23683 6.51004 24782 ft 391 kts 326°
2026-05-07 16:08 44.26041 6.49090 25223 ft 392 kts 326°
2026-05-07 16:08 44.28403 6.47173 25657 ft 394 kts 326°
2026-05-07 16:08 44.30778 6.45244 26069 ft 396 kts 326°
2026-05-07 16:08 44.33170 6.43303 26462 ft 399 kts 326°
2026-05-07 16:09 44.35551 6.41377 26852 ft 401 kts 326°
2026-05-07 16:09 44.37968 6.39420 27261 ft 403 kts 325°
2026-05-07 16:09 44.40393 6.37447 27664 ft 405 kts 325°
2026-05-07 16:09 44.42834 6.35452 28058 ft 407 kts 324°
2026-05-07 16:10 44.45284 6.33443 28456 ft 409 kts 325°
2026-05-07 16:10 44.47746 6.31428 28809 ft 411 kts 325°
2026-05-07 16:10 44.50215 6.29407 29182 ft 413 kts 325°
2026-05-07 16:10 44.52702 6.27374 29520 ft 415 kts 325°
2026-05-07 16:11 44.55198 6.25331 29865 ft 417 kts 324°
2026-05-07 16:11 44.57707 6.23275 30192 ft 418 kts 324°
2026-05-07 16:11 44.60226 6.21204 30495 ft 420 kts 324°
2026-05-07 16:11 44.62755 6.19122 30770 ft 422 kts 324°
2026-05-07 16:12 44.65295 6.17031 31060 ft 424 kts 324°
2026-05-07 16:12 44.67847 6.14929 31345 ft 426 kts 324°
2026-05-07 16:12 44.70406 6.12822 31630 ft 427 kts 324°
2026-05-07 16:12 44.72977 6.10701 31905 ft 429 kts 324°
2026-05-07 16:13 44.75553 6.08574 32244 ft 429 kts 324°
2026-05-07 16:13 44.78130 6.06448 32613 ft 429 kts 324°
2026-05-07 16:13 44.80701 6.04323 33000 ft 428 kts 324°
2026-05-07 16:13 44.83265 6.02196 33407 ft 427 kts 324°
2026-05-07 16:14 44.85789 6.00098 33854 ft 426 kts 324°
2026-05-07 16:14 44.88339 5.97978 34221 ft 425 kts 324°
2026-05-07 16:14 44.90916 5.95834 34544 ft 425 kts 324°
2026-05-07 16:14 44.93433 5.93738 34834 ft 426 kts 324°
2026-05-07 16:15 44.95992 5.91603 35112 ft 427 kts 324°
2026-05-07 16:15 44.98550 5.89471 35396 ft 427 kts 324°
2026-05-07 16:15 45.01118 5.87329 35667 ft 428 kts 324°
2026-05-07 16:15 45.03680 5.85186 35885 ft 428 kts 324°
2026-05-07 16:16 45.06247 5.83037 36000 ft 426 kts 324°
2026-05-07 16:16 45.11275 5.78694 36016 ft 421 kts 322°
2026-05-07 16:17 45.16179 5.74166 36015 ft 420 kts 322°
2026-05-07 16:17 45.21061 5.69611 36021 ft 420 kts 322°
2026-05-07 16:18 45.25962 5.65086 36031 ft 420 kts 322°
2026-05-07 16:18 45.30871 5.60580 36044 ft 420 kts 322°
2026-05-07 16:19 45.35773 5.56077 36042 ft 420 kts 322°
2026-05-07 16:19 45.40677 5.51542 36047 ft 420 kts 322°
2026-05-07 16:20 45.45569 5.46992 36062 ft 420 kts 322°
2026-05-07 16:20 45.50608 5.42837 36058 ft 425 kts 332°
2026-05-07 16:21 45.56045 5.39489 36042 ft 426 kts 332°
2026-05-07 16:21 45.61478 5.36132 36052 ft 426 kts 332°
2026-05-07 16:22 45.66909 5.32759 36052 ft 425 kts 332°
2026-05-07 16:22 45.72334 5.29388 36069 ft 425 kts 332°
2026-05-07 16:23 45.77764 5.26010 36066 ft 425 kts 332°
2026-05-07 16:23 45.83197 5.22618 36064 ft 425 kts 332°
2026-05-07 16:24 45.88623 5.19224 36076 ft 426 kts 332°
2026-05-07 16:24 45.94056 5.15826 36066 ft 426 kts 332°
2026-05-07 16:25 45.99449 5.12433 36059 ft 426 kts 332°
2026-05-07 16:25 46.04916 5.08983 36055 ft 426 kts 332°
2026-05-07 16:26 46.10308 5.05563 36073 ft 426 kts 332°
2026-05-07 16:26 46.15736 5.02106 36071 ft 427 kts 332°
2026-05-07 16:27 46.21171 4.98638 36071 ft 427 kts 332°
2026-05-07 16:27 46.26604 4.95167 36085 ft 427 kts 332°
2026-05-07 16:28 46.32037 4.91686 36078 ft 427 kts 332°
2026-05-07 16:28 46.37480 4.88192 36075 ft 428 kts 332°
2026-05-07 16:29 46.42922 4.84688 36072 ft 428 kts 332°
2026-05-07 16:29 46.48364 4.81177 36082 ft 428 kts 333°
2026-05-07 16:30 46.52894 4.78239 36073 ft 429 kts 333°
2026-05-07 16:30 46.59228 4.74138 36069 ft 429 kts 333°
2026-05-07 16:31 46.64683 4.70593 36068 ft 429 kts 333°
2026-05-07 16:31 46.69254 4.67616 36070 ft 430 kts 333°
2026-05-07 16:32 46.74677 4.64090 36071 ft 430 kts 333°
2026-05-07 16:32 46.80139 4.60532 36071 ft 430 kts 333°
2026-05-07 16:33 46.85598 4.56960 36070 ft 430 kts 333°
2026-05-07 16:33 46.91060 4.53411 36082 ft 430 kts 333°
2026-05-07 16:34 46.96530 4.49855 36073 ft 430 kts 333°
2026-05-07 16:34 47.01994 4.46288 36070 ft 430 kts 333°
2026-05-07 16:35 47.07465 4.42718 36065 ft 430 kts 333°
2026-05-07 16:35 47.12936 4.39130 36071 ft 430 kts 333°
2026-05-07 16:36 47.18394 4.35527 36067 ft 430 kts 333°
2026-05-07 16:36 47.23856 4.31919 36065 ft 430 kts 333°
2026-05-07 16:37 47.29285 4.28337 36067 ft 430 kts 333°
2026-05-07 16:37 47.34744 4.24729 36077 ft 430 kts 333°
2026-05-07 16:38 47.40200 4.21113 36071 ft 430 kts 333°
2026-05-07 16:38 47.45656 4.17484 36067 ft 430 kts 333°
2026-05-07 16:39 47.51112 4.13849 36063 ft 430 kts 333°
2026-05-07 16:39 47.56579 4.10199 36056 ft 431 kts 333°
2026-05-07 16:40 47.62048 4.06538 36056 ft 431 kts 333°
2026-05-07 16:40 47.67520 4.02867 36054 ft 431 kts 333°
2026-05-07 16:41 47.72961 3.99219 36060 ft 432 kts 333°
2026-05-07 16:41 47.78434 3.95543 36066 ft 432 kts 333°
2026-05-07 16:42 47.83912 3.91854 36069 ft 432 kts 333°
2026-05-07 16:42 47.89382 3.88156 36069 ft 432 kts 333°
2026-05-07 16:43 47.94857 3.84445 36071 ft 432 kts 333°
2026-05-07 16:43 48.00326 3.80726 36074 ft 432 kts 333°
2026-05-07 16:44 48.05803 3.76999 36072 ft 432 kts 333°
2026-05-07 16:44 48.11281 3.73261 36068 ft 433 kts 333°
2026-05-07 16:45 48.16434 3.68725 36069 ft 429 kts 318°
2026-05-07 16:45 48.20578 3.62358 36071 ft 427 kts 311°
2026-05-07 16:46 48.24602 3.55788 36066 ft 428 kts 311°
2026-05-07 16:46 48.28642 3.49225 36068 ft 428 kts 311°
2026-05-07 16:47 48.32683 3.42640 36072 ft 429 kts 311°
2026-05-07 16:47 48.36715 3.36030 36069 ft 429 kts 311°
2026-05-07 16:48 48.41022 3.29904 36079 ft 431 kts 324°
2026-05-07 16:48 48.46430 3.25826 36069 ft 434 kts 335°
2026-05-07 16:49 48.52008 3.22301 36068 ft 435 kts 335°
2026-05-07 16:49 48.57574 3.18732 36067 ft 435 kts 335°
2026-05-07 16:50 48.63112 3.15171 36072 ft 435 kts 335°
2026-05-07 16:50 48.68692 3.11574 36076 ft 436 kts 335°
2026-05-07 16:51 48.74279 3.07973 36075 ft 436 kts 335°
2026-05-07 16:51 48.79866 3.04368 36081 ft 437 kts 335°
2026-05-07 16:52 48.85406 3.00581 36085 ft 436 kts 328°
2026-05-07 16:52 48.90651 2.95995 36082 ft 434 kts 328°
2026-05-07 16:53 48.95887 2.91421 36078 ft 434 kts 328°
2026-05-07 16:53 49.01129 2.86823 36078 ft 434 kts 328°
2026-05-07 16:54 49.06358 2.82224 36083 ft 434 kts 328°
2026-05-07 16:54 49.11584 2.77624 36087 ft 434 kts 328°
2026-05-07 16:55 49.16782 2.73034 36089 ft 435 kts 328°
2026-05-07 16:55 49.22019 2.68399 36083 ft 435 kts 328°
2026-05-07 16:56 49.27256 2.63755 36086 ft 435 kts 328°
2026-05-07 16:56 49.35112 2.56744 36093 ft 435 kts 328°
2026-05-07 16:57 49.40354 2.52064 36095 ft 435 kts 328°
2026-05-07 16:57 49.45592 2.47387 36095 ft 435 kts 328°
2026-05-07 16:58 49.50819 2.42697 36103 ft 435 kts 328°
2026-05-07 16:58 49.56086 2.38093 36092 ft 436 kts 329°
2026-05-07 16:59 49.61382 2.33667 36095 ft 436 kts 329°
2026-05-07 16:59 49.66712 2.29209 36087 ft 436 kts 329°
2026-05-07 17:00 49.72032 2.24699 36091 ft 436 kts 329°
2026-05-07 17:00 49.77349 2.20165 36092 ft 436 kts 329°
2026-05-07 17:01 49.82662 2.15617 36095 ft 436 kts 329°
2026-05-07 17:01 49.87976 2.11063 36083 ft 436 kts 329°
2026-05-07 17:02 49.93291 2.06500 36088 ft 437 kts 329°
2026-05-07 17:02 49.98606 2.01920 36093 ft 437 kts 329°
2026-05-07 17:03 50.03926 1.97321 36091 ft 437 kts 329°
2026-05-07 17:03 50.09240 1.92723 36091 ft 437 kts 329°
2026-05-07 17:04 50.14552 1.88105 36088 ft 437 kts 329°
2026-05-07 17:04 50.19380 1.82479 36098 ft 433 kts 314°
2026-05-07 17:05 50.23658 1.75963 36094 ft 433 kts 314°
2026-05-07 17:05 50.25814 1.72675 35759 ft 432 kts 314°
2026-05-07 17:05 50.27964 1.69396 35202 ft 432 kts 314°
2026-05-07 17:06 50.30113 1.66116 34675 ft 431 kts 314°
2026-05-07 17:06 50.32253 1.62840 34153 ft 430 kts 314°
2026-05-07 17:06 50.34388 1.59559 33524 ft 429 kts 313°
2026-05-07 17:06 50.36519 1.56279 32815 ft 430 kts 314°
2026-05-07 17:07 50.38650 1.53003 32240 ft 427 kts 314°
2026-05-07 17:07 50.40764 1.49758 31751 ft 424 kts 314°
2026-05-07 17:07 50.42863 1.46531 31254 ft 420 kts 314°
2026-05-07 17:07 50.44940 1.43328 30744 ft 417 kts 313°
2026-05-07 17:08 50.47001 1.40139 30257 ft 414 kts 313°
2026-05-07 17:08 50.49014 1.37020 29717 ft 411 kts 313°
2026-05-07 17:08 50.51009 1.33846 29174 ft 407 kts 312°
2026-05-07 17:08 50.52947 1.30620 28632 ft 403 kts 311°
2026-05-07 17:09 50.54837 1.27374 28103 ft 400 kts 310°
2026-05-07 17:09 50.56695 1.24143 27593 ft 397 kts 310°
2026-05-07 17:09 50.58549 1.20946 27113 ft 395 kts 311°
2026-05-07 17:09 50.60443 1.17837 26635 ft 392 kts 313°
2026-05-07 17:10 50.62365 1.14798 26185 ft 390 kts 313°
2026-05-07 17:10 50.64293 1.11805 25752 ft 388 kts 314°
2026-05-07 17:10 50.66218 1.08830 25323 ft 386 kts 314°
2026-05-07 17:10 50.68125 1.05865 24911 ft 385 kts 314°
2026-05-07 17:11 50.70021 1.02891 24522 ft 382 kts 313°
2026-05-07 17:11 50.71894 0.99924 24132 ft 380 kts 313°
2026-05-07 17:11 50.73749 0.96971 23743 ft 378 kts 313°
2026-05-07 17:11 50.75571 0.94062 23294 ft 376 kts 313°
2026-05-07 17:12 50.77404 0.91132 22812 ft 374 kts 313°
2026-05-07 17:12 50.79230 0.88215 22348 ft 372 kts 313°
2026-05-07 17:12 50.81042 0.85320 21890 ft 369 kts 313°
2026-05-07 17:12 50.82840 0.82439 21437 ft 367 kts 313°
2026-05-07 17:13 50.84629 0.79571 20975 ft 364 kts 313°
2026-05-07 17:13 50.86403 0.76728 20517 ft 362 kts 313°
2026-05-07 17:13 50.88168 0.73899 20057 ft 360 kts 313°
2026-05-07 17:13 50.89929 0.71077 19499 ft 361 kts 313°
2026-05-07 17:14 50.91694 0.68241 18922 ft 362 kts 313°
2026-05-07 17:14 50.93460 0.65396 18355 ft 363 kts 313°
2026-05-07 17:14 50.95231 0.62538 17713 ft 363 kts 313°
2026-05-07 17:14 50.97003 0.59679 17089 ft 363 kts 313°
2026-05-07 17:15 50.98773 0.56823 16493 ft 362 kts 313°
2026-05-07 17:15 51.00538 0.53974 15906 ft 361 kts 314°
2026-05-07 17:15 51.02295 0.51134 15331 ft 360 kts 314°
2026-05-07 17:15 51.04033 0.48309 14979 ft 353 kts 313°
2026-05-07 17:16 51.05713 0.45571 14900 ft 338 kts 313°
2026-05-07 17:16 51.07354 0.42905 14902 ft 338 kts 314°
2026-05-07 17:16 51.09031 0.40284 14892 ft 338 kts 315°
2026-05-07 17:16 51.10709 0.37735 14889 ft 326 kts 316°
2026-05-07 17:17 51.12322 0.35313 14891 ft 314 kts 316°
2026-05-07 17:17 51.13907 0.32936 14893 ft 312 kts 316°
2026-05-07 17:17 51.15481 0.30555 14893 ft 312 kts 315°
2026-05-07 17:17 51.17041 0.28180 14712 ft 309 kts 315°
2026-05-07 17:18 51.18071 0.26608 14479 ft 308 kts 315°
2026-05-07 17:18 51.19616 0.24244 14145 ft 307 kts 315°
2026-05-07 17:18 51.21152 0.21888 13830 ft 306 kts 315°
2026-05-07 17:18 51.22680 0.19540 13485 ft 304 kts 315°
2026-05-07 17:19 51.24692 0.16450 13019 ft 302 kts 315°
2026-05-07 17:19 51.25712 0.14881 12786 ft 301 kts 315°
2026-05-07 17:19 51.27701 0.11813 12330 ft 299 kts 315°
2026-05-07 17:19 51.28710 0.10255 12103 ft 298 kts 315°
2026-05-07 17:20 51.30057 0.07768 11779 ft 295 kts 298°
2026-05-07 17:20 51.30694 0.04695 11447 ft 292 kts 279°
2026-05-07 17:20 51.30980 0.01479 11096 ft 292 kts 277°
2026-05-07 17:20 51.31224 -0.01737 10804 ft 291 kts 276°
2026-05-07 17:21 51.31472 -0.04941 10441 ft 291 kts 276°
2026-05-07 17:21 51.31721 -0.08149 10121 ft 290 kts 276°
2026-05-07 17:21 51.31964 -0.11301 9781 ft 288 kts 276°
2026-05-07 17:21 51.32208 -0.14495 9557 ft 282 kts 276°
2026-05-07 17:22 51.32447 -0.17563 9418 ft 274 kts 276°
2026-05-07 17:22 51.32675 -0.20492 9284 ft 265 kts 276°
2026-05-07 17:22 51.32897 -0.23371 9139 ft 257 kts 276°
2026-05-07 17:22 51.33117 -0.26169 8969 ft 251 kts 276°
2026-05-07 17:23 51.33339 -0.28956 8553 ft 255 kts 276°
2026-05-07 17:23 51.33555 -0.31719 8415 ft 247 kts 276°
2026-05-07 17:23 51.33758 -0.34426 8178 ft 244 kts 276°
2026-05-07 17:23 51.33954 -0.37103 7945 ft 241 kts 276°
2026-05-07 17:24 51.34146 -0.39761 7689 ft 239 kts 276°
2026-05-07 17:24 51.34336 -0.42396 7429 ft 238 kts 276°
2026-05-07 17:24 51.34524 -0.45018 7159 ft 236 kts 276°
2026-05-07 17:24 51.34709 -0.47620 7075 ft 235 kts 276°
2026-05-07 17:25 51.34893 -0.50226 7078 ft 236 kts 276°
2026-05-07 17:25 51.35077 -0.52839 7079 ft 236 kts 276°
2026-05-07 17:25 51.35261 -0.55457 7084 ft 236 kts 276°
2026-05-07 17:25 51.35444 -0.58073 7079 ft 236 kts 276°
2026-05-07 17:26 51.35624 -0.60652 7076 ft 236 kts 276°
2026-05-07 17:26 51.35808 -0.63264 7080 ft 236 kts 276°
2026-05-07 17:26 51.35990 -0.65876 7077 ft 236 kts 276°
2026-05-07 17:26 51.36173 -0.68492 7076 ft 236 kts 276°
2026-05-07 17:27 51.36356 -0.71108 7079 ft 236 kts 276°
2026-05-07 17:27 51.36538 -0.73723 7076 ft 236 kts 276°
2026-05-07 17:27 51.36719 -0.76336 7075 ft 236 kts 276°
2026-05-07 17:27 51.36901 -0.78952 7075 ft 236 kts 276°
2026-05-07 17:28 51.37081 -0.81543 6835 ft 234 kts 276°
2026-05-07 17:28 51.37260 -0.84114 6638 ft 229 kts 277°
2026-05-07 17:28 51.37773 -0.86442 6509 ft 221 kts 307°
2026-05-07 17:28 51.38851 -0.88126 6387 ft 213 kts 319°
2026-05-07 17:29 51.39999 -0.89573 6246 ft 206 kts 322°
2026-05-07 17:29 51.41298 -0.90472 6014 ft 204 kts 355°
2026-05-07 17:29 51.42652 -0.89981 5716 ft 206 kts 32°
2026-05-07 17:29 51.43619 -0.88324 5507 ft 201 kts 56°
2026-05-07 17:30 51.44306 -0.86433 5379 ft 191 kts 60°
2026-05-07 17:30 51.44917 -0.84624 5231 ft 178 kts 61°
2026-05-07 17:30 51.45472 -0.82959 5094 ft 160 kts 61°
2026-05-07 17:30 51.45977 -0.81434 4756 ft 153 kts 61°
2026-05-07 17:31 51.46475 -0.79935 4356 ft 152 kts 61°
2026-05-07 17:31 51.46972 -0.78455 4035 ft 148 kts 61°
2026-05-07 17:31 51.47478 -0.76945 4048 ft 164 kts 64°
2026-05-07 17:31 51.47645 -0.75112 3684 ft 169 kts 98°
2026-05-07 17:32 51.47584 -0.73227 3276 ft 168 kts 89°
2026-05-07 17:32 51.47617 -0.71361 2978 ft 168 kts 89°
2026-05-07 17:32 51.47638 -0.69491 2727 ft 167 kts 90°
2026-05-07 17:32 51.47652 -0.67629 2491 ft 167 kts 90°
2026-05-07 17:33 51.47664 -0.65775 2245 ft 166 kts 90°
2026-05-07 17:33 51.47675 -0.63928 2018 ft 165 kts 90°
2026-05-07 17:33 51.47684 -0.62111 1795 ft 165 kts 90°
2026-05-07 17:33 51.47694 -0.60284 1555 ft 158 kts 90°
2026-05-07 17:34 51.47703 -0.58590 1354 ft 148 kts 90°
2026-05-07 17:34 51.47711 -0.56969 1159 ft 144 kts 90°
2026-05-07 17:34 51.47718 -0.55371 960 ft 143 kts 90°
2026-05-07 17:34 51.47725 -0.53788 769 ft 142 kts 90°
2026-05-07 17:35 51.47732 -0.52201 580 ft 142 kts 90°
2026-05-07 17:35 51.47739 -0.50625 393 ft 142 kts 90°
2026-05-07 17:35 51.47746 -0.49047 205 ft 141 kts 90°
2026-05-07 17:35 51.47752 -0.47495 89 ft 129 kts 90°
2026-05-07 17:36 51.47757 -0.46420 95 ft 72 kts 89°
2026-05-07 17:36 51.47758 -0.45672 89 ft 55 kts 89°
2026-05-07 17:36 51.47748 -0.45228 93 ft 26 kts 120°
2026-05-07 17:36 51.47592 -0.45174 92 ft 20 kts 179°
2026-05-07 17:37 51.47506 -0.45300 92 ft 20 kts 262°
2026-05-07 17:37 51.47503 -0.45407 90 ft 0 kts 269°
2026-05-07 17:38 51.47503 -0.45409 90 ft 0 kts 269°
2026-05-07 17:38 51.47503 -0.45417 91 ft 1 kts 269°
2026-05-07 17:38 51.47503 -0.45463 99 ft 8 kts 270°
2026-05-07 17:39 51.47505 -0.45600 93 ft 16 kts 270°
2026-05-07 17:39 51.47515 -0.45806 90 ft 21 kts 275°
2026-05-07 17:39 51.47516 -0.46030 91 ft 16 kts 269°
2026-05-07 17:39 51.47514 -0.46185 90 ft 14 kts 269°
2026-05-07 17:40 51.47514 -0.46366 89 ft 18 kts 270°
2026-05-07 17:40 51.47513 -0.46565 93 ft 18 kts 269°
2026-05-07 17:40 51.47510 -0.46709 90 ft 0 kts 258°
2026-05-07 17:40 51.47505 -0.46735 91 ft 5 kts 254°
2026-05-07 17:41 51.47496 -0.46812 90 ft 9 kts 265°
2026-05-07 17:41 51.47493 -0.46920 90 ft 10 kts 268°
2026-05-07 17:41 51.47491 -0.47037 91 ft 11 kts 269°
2026-05-07 17:41 51.47491 -0.47149 91 ft 5 kts 270°
2026-05-07 17:42 51.47491 -0.47154 91 ft 2 kts 270°
2026-05-07 17:42 51.47491 -0.47199 90 ft 6 kts 270°
2026-05-07 17:42 51.47491 -0.47297 89 ft 11 kts 270°
2026-05-07 17:42 51.47491 -0.47437 90 ft 13 kts 269°
2026-05-07 17:43 51.47489 -0.47595 91 ft 16 kts 269°
2026-05-07 17:43 51.47488 -0.47791 89 ft 19 kts 270°
2026-05-07 17:43 51.47489 -0.48008 91 ft 19 kts 270°
2026-05-07 17:43 51.47488 -0.48212 90 ft 17 kts 269°
2026-05-07 17:44 51.47487 -0.48391 90 ft 0 kts 269°
2026-05-07 17:44 51.47487 -0.48396 90 ft 1 kts 269°
2026-05-07 17:44 51.47482 -0.48440 90 ft 7 kts 249°
2026-05-07 17:44 51.47435 -0.48474 89 ft 10 kts 181°
2026-05-07 17:45 51.47370 -0.48476 87 ft 0 kts 181°
2026-05-07 17:47 51.47364 -0.48476 87 ft 0 kts 180°
2026-05-07 17:48 51.47356 -0.48476 87 ft 3 kts 180°
2026-05-07 17:49 51.47326 -0.48492 87 ft 6 kts 224°
2026-05-07 17:49 51.47316 -0.48555 87 ft 3 kts 264°
2026-05-07 17:49 51.47315 -0.48597 87 ft 0 kts 270°